Location: Unspecified
(34.4950°S, 58.5160°W)
Time: 05:02:32
(UTC+00:00)

ACS3 Solar Sail - Pass Details

Date: 19 February 2026
Orbit: 885 x 974 km, 97.2° (Epoch: 11 March)

Event Time Altitude Azimuth Distance (km) Brightness Sun altitude
Exits shadow 05:55:28 18° 210° (SSW) 2,153 3.8 -37.6°
Drops below altitude 10° 05:57:00 10° 204° (SSW) 2,692 4.4 -37.4°
Sets 05:59:37 0° 198° (SSW) 3,659 5.2 -37.1°
